Regional Weather Roundup
Issued by NWS

Home | Current Version | Previous Version | Graphics & Text | Print | Product List | Glossary Off
Versions: 1 2 3 4 5 6 7 8 9 10 11 12 13 14 15 16 17 18 19 20 21 22 23 24 25 26 27 28 29 30 31 32 33 34 35 36 37 38 39 40 41 42 43 44 45 46 47 48 49 50

000
ASUS43 KTOP 230608
RWRKS

WEATHER ROUNDUP FOR KANSAS
NATIONAL WEATHER SERVICE GOODLAND KS
100 AM CDT SAT MAY 23 2015

NOTE:  "FAIR" INDICATES FEW OR NO CLOUDS BELOW 12,000 FEET WITH NO
SIGNIFICANT WEATHER AND/OR OBSTRUCTIONS TO VISIBILITY.

KSZ001>006-013>018-027>032-041>047-230700-
NORTHWEST KANSAS

CITY           SKY/WX    TMP DP  RH WIND       PRES   REMARKS
GOODLAND       LGT RAIN  53  53 100 SE21G31   30.03F VSB 1/2
6HR MIN TEMP:  52; 6HR MAX TEMP:  55; 6HR PCP:  0.01;

HAYS           CLOUDY    55  48  76 SE15      30.13S
HILL CITY      CLOUDY    56  53  90 S13       30.11S
6HR MIN TEMP:  53; 6HR MAX TEMP:  56;

RUSSELL        CLOUDY    55  54  96 SE14      30.13R
6HR MIN TEMP:  55; 6HR MAX TEMP:  56; 6HR PCP:  0.02;

$$

KSZ061>065-074>080-084>089-230700-
SOUTHWEST KANSAS

CITY           SKY/WX    TMP DP  RH WIND       PRES   REMARKS
DODGE CITY     LGT RAIN  55  53  93 SE14      30.11S FOG
6HR MIN TEMP:  55; 6HR MAX TEMP:  56; 6HR PCP: TRACE;

ELKHART          N/A     57  53  86 S14         N/A
GARDEN CITY    CLOUDY    55  54  96 SE18      30.06F
6HR MIN TEMP:  55; 6HR MAX TEMP:  57;

GREAT BEND     CLOUDY    54  52  94 SE14      30.14S
LIBERAL        CLOUDY    57  54  88 S14       30.07R
PRATT          CLOUDY    52  52 100 S14       30.16R FOG
$$

KSZ066>073-081>083-090>101-230700-
SOUTHEAST KANSAS

CITY           SKY/WX    TMP DP  RH WIND       PRES   REMARKS
CHANUTE        CLOUDY    59  53  80 SE7       30.18S
6HR MIN TEMP:  59; 6HR MAX TEMP:  63;

COFFEYVILLE    CLOUDY    61  53  75 SE6       30.18S
6HR MIN TEMP:  60; 6HR MAX TEMP:  64; 6HR PCP: TRACE;

HUTCHINSON     CLOUDY    55  52  89 SE10      30.17R FOG
6HR MIN TEMP:  55; 6HR MAX TEMP:  58; 6HR PCP: TRACE;

MEDICINE LODGE   N/A     54  54 100 SE6       30.14S
NEWTON         CLOUDY    54  48  82 SE8       30.19S
PARSONS        CLOUDY    60  56  86 CALM      30.19F
6HR MIN TEMP:  60; 6HR MAX TEMP:  63; 6HR PCP: TRACE;

WICHITA INTL   CLOUDY    55  53  93 SE8       30.16S FOG
6HR MIN TEMP:  55; 6HR MAX TEMP:  61; 6HR PCP:  0.03;

WICHITA JABRA  CLOUDY    54  53  97 SE8       30.16S FOG
6HR MIN TEMP:  54; 6HR MAX TEMP:  60; 6HR PCP:  0.01;

WICHITA MCCONL CLOUDY    55  54  96 SE10      30.17R
WINFIELD       CLOUDY    55  55 100 SE7       30.18R FOG
6HR MIN TEMP:  55; 6HR MAX TEMP:  60; 6HR PCP:  0.03;

$$

KSZ007>012-019>026-033>040-048>060-102>105-230700-
NORTHEAST KANSAS

CITY           SKY/WX    TMP DP  RH WIND       PRES   REMARKS
CONCORDIA      CLOUDY    57  48  72 SE13G22   30.16S
6HR MIN TEMP:  56; 6HR MAX TEMP:  58;

EMPORIA        CLOUDY    57  53  86 SE6       30.17S
6HR MIN TEMP:  56; 6HR MAX TEMP:  61; 6HR PCP:  0.02;

LAWRENCE       CLOUDY    60  53  77 SE7       30.19F
6HR MIN TEMP:  59; 6HR MAX TEMP:  63;

MANHATTAN      CLOUDY    58  50  75 E3        30.18S
6HR MIN TEMP:  58; 6HR MAX TEMP:  63;

MARYSVILLE     CLOUDY    57  48  72 SE7       30.17F
OLATHE IND     CLOUDY    60  52  74 SE10      30.20F
6HR MIN TEMP:  60; 6HR MAX TEMP:  62;

OLATHE EXE     CLOUDY    60  54  80 SE8       30.19F
6HR MIN TEMP:  60; 6HR MAX TEMP:  62;

SALINA         CLOUDY    56  52  86 SE10      30.17R
6HR MIN TEMP:  56; 6HR MAX TEMP:  61;

TOPEKA BILLARD CLOUDY    61  52  72 SE7       30.19S
6HR MIN TEMP:  60; 6HR MAX TEMP:  62;

TOPEKA FORBES  CLOUDY    60  53  77 SE5       30.18F
6HR MIN TEMP:  60; 6HR MAX TEMP:  63;

$$



USA.gov is the U.S. government's official web portal to all federal, state and local government web resources and services.